Location: Cerezo de Arriba
(41.2389°N, 3.5585°W)
Time: 04:41:52
(UTC+00:00)

Cosmos 1356 Rocket - Pass Details

Date: 19 May 2025
Orbit: 517 x 565 km, 81.2° (Epoch: 23 June)

Event Time Altitude Azimuth Distance (km) Brightness Sun altitude
Exits shadow 22:03:56 39° 226° (SW) 858 4.1 -22.1°
Maximum altitude 22:05:10 56° 282° (WNW) 678 3.9 -22.2°
Drops below altitude 10° 22:09:13 10° 1° (N) 1,861 6.8 -22.6°
Sets 22:11:26 0° 6° (N) 2,756 7.7 -22.8°
